• In Deutschland
  • Länderverzeichnis
  • Für 7 Tage
  • Wassertemperatur
  • Satellitenkarten
  • Wetterkarte
  • Widgets
  • user-avatar
    Anmelden

    Stündliche Wetter Gliwice

    Heute, 19 September, Mittwoch

    Zeit Temperatur Niederschläge Wind Luftdruck Luftfeuchtigkeit
    00:00 +18°C° 0 mm 3 m/S 743 mmHg 65%
    01:00 +18°C° 0 mm 3 m/S 743 mmHg 65%
    02:00 +17°C° 0 mm 3 m/S 743 mmHg 65%
    03:00 +17°C° 0 mm 3 m/S 743 mmHg 66%
    04:00 +17°C° 0 mm 3 m/S 743 mmHg 66%
    05:00 +17°C° 0 mm 3 m/S 743 mmHg 64%
    06:00 +18°C° 0 mm 3 m/S 744 mmHg 63%
    07:00 +18°C° 0 mm 3 m/S 744 mmHg 61%
    08:00 +20°C° 0 mm 3 m/S 744 mmHg 55%
    09:00 +22°C° 0 mm 4 m/S 744 mmHg 49%
    10:00 +26°C° 0 mm 4 m/S 744 mmHg 42%
    11:00 +26°C° 0 mm 4 m/S 744 mmHg 41%
    12:00 +27°C° 0 mm 4 m/S 744 mmHg 39%
    13:00 +28°C° 0 mm 3 m/S 744 mmHg 38%
    14:00 +28°C° 0 mm 3 m/S 744 mmHg 39%
    15:00 +28°C° 0 mm 3 m/S 744 mmHg 41%
    16:00 +27°C° 0 mm 2 m/S 743 mmHg 43%
    17:00 +26°C° 0 mm 2 m/S 744 mmHg 48%
    18:00 +24°C° 0 mm 2 m/S 744 mmHg 53%
    19:00 +21°C° 0 mm 2 m/S 744 mmHg 58%
    20:00 +20°C° 0 mm 2 m/S 744 mmHg 60%
    21:00 +20°C° 0 mm 2 m/S 744 mmHg 62%
    22:00 +19°C° 0 mm 2 m/S 744 mmHg 64%
    23:00 +19°C° 0 mm 2 m/S 744 mmHg 65%

    Morgen, 20 September, Donnerstag

    Zeit Temperatur Niederschläge Wind Luftdruck Luftfeuchtigkeit
    00:00 +18°C° 0 mm 2 m/S 744 mmHg 66%
    01:00 +18°C° 0 mm 2 m/S 744 mmHg 67%
    02:00 +18°C° 0 mm 2 m/S 744 mmHg 67%
    03:00 +17°C° 0 mm 2 m/S 744 mmHg 68%
    04:00 +17°C° 0 mm 2 m/S 744 mmHg 69%
    05:00 +18°C° 0 mm 2 m/S 744 mmHg 68%
    06:00 +18°C° 0 mm 2 m/S 744 mmHg 67%
    07:00 +19°C° 0 mm 2 m/S 744 mmHg 66%
    08:00 +21°C° 0 mm 2 m/S 744 mmHg 60%
    09:00 +24°C° 0 mm 2 m/S 744 mmHg 54%
    10:00 +26°C° 0 mm 2 m/S 744 mmHg 48%
    11:00 +27°C° 0 mm 2 m/S 744 mmHg 46%
    12:00 +28°C° 0 mm 2 m/S 744 mmHg 44%
    13:00 +29°C° 0 mm 2 m/S 744 mmHg 42%
    14:00 +29°C° 0 mm 2 m/S 743 mmHg 43%
    15:00 +28°C° 0 mm 2 m/S 743 mmHg 43%
    16:00 +28°C° 0 mm 1 m/S 743 mmHg 44%
    17:00 +27°C° 0 mm 1 m/S 743 mmHg 50%
    18:00 +25°C° 0 mm 1 m/S 743 mmHg 55%
    19:00 +23°C° 0 mm 1 m/S 743 mmHg 61%
    20:00 +22°C° 0 mm 1 m/S 743 mmHg 64%
    21:00 +22°C° 0 mm 1 m/S 743 mmHg 66%
    22:00 +20°C° 0 mm 2 m/S 743 mmHg 69%
    23:00 +20°C° 0 mm 2 m/S 743 mmHg 71%

    übermorgen, 21 September, Freitag

    Zeit Temperatur Niederschläge Wind Luftdruck Luftfeuchtigkeit
    00:00 +19°C° 0 mm 2 m/S 743 mmHg 73%
    01:00 +19°C° 0 mm 2 m/S 742 mmHg 75%
    02:00 +19°C° 0 mm 2 m/S 742 mmHg 75%
    03:00 +18°C° 0 mm 2 m/S 742 mmHg 76%
    04:00 +18°C° 0 mm 2 m/S 742 mmHg 76%
    05:00 +18°C° 0 mm 2 m/S 742 mmHg 74%
    06:00 +19°C° 0 mm 2 m/S 741 mmHg 71%
    07:00 +19°C° 0 mm 2 m/S 741 mmHg 69%
    08:00 +22°C° 0 mm 3 m/S 741 mmHg 60%
    09:00 +25°C° 0 mm 3 m/S 741 mmHg 51%
    10:00 +27°C° 0 mm 4 m/S 741 mmHg 43%
    11:00 +28°C° 0 mm 5 m/S 740 mmHg 40%
    12:00 +29°C° 0 mm 5 m/S 740 mmHg 37%
    13:00 +29°C° 0 mm 6 m/S 739 mmHg 34%
    14:00 +29°C° 0 mm 5 m/S 739 mmHg 35%
    15:00 +28°C° 0 mm 5 m/S 738 mmHg 37%
    16:00 +28°C° 0 mm 5 m/S 737 mmHg 38%
    17:00 +26°C° 0 mm 5 m/S 737 mmHg 41%
    18:00 +25°C° 0 mm 4 m/S 737 mmHg 45%
    19:00 +22°C° 0 mm 4 m/S 737 mmHg 48%
    20:00 +22°C° 0 mm 5 m/S 736 mmHg 47%
    21:00 +22°C° 0 mm 5 m/S 736 mmHg 46%
    22:00 +22°C° 0 mm 5 m/S 736 mmHg 46%
    23:00 +21°C° 0 mm 5 m/S 736 mmHg 45%

    22 September, Samstag

    Zeit Temperatur Niederschläge Wind Luftdruck Luftfeuchtigkeit
    00:00 +21°C° 0 mm 5 m/S 736 mmHg 45%
    01:00 +21°C° 0 mm 5 m/S 736 mmHg 44%
    02:00 +19°C° 0.4 mm 6 m/S 737 mmHg 55%
    03:00 +15°C° 0.4 mm 6 m/S 738 mmHg 67%
    04:00 +12°C° 0.4 mm 7 m/S 739 mmHg 78%
    05:00 +11°C° 0.4 mm 6 m/S 740 mmHg 78%
    06:00 +12°C° 0.4 mm 5 m/S 741 mmHg 78%
    07:00 +11°C° 0.4 mm 3 m/S 742 mmHg 78%
    08:00 +12°C° 0.1 mm 4 m/S 743 mmHg 73%
    09:00 +12°C° 0.1 mm 4 m/S 743 mmHg 69%
    10:00 +12°C° 0.1 mm 4 m/S 743 mmHg 65%
    11:00 +13°C° 0 mm 4 m/S 743 mmHg 62%
    12:00 +13°C° 0 mm 4 m/S 743 mmHg 59%
    13:00 +14°C° 0 mm 4 m/S 743 mmHg 56%
    14:00 +14°C° 0 mm 4 m/S 743 mmHg 54%
    15:00 +15°C° 0 mm 4 m/S 743 mmHg 52%
    16:00 +15°C° 0 mm 4 m/S 743 mmHg 49%
    17:00 +14°C° 0 mm 4 m/S 743 mmHg 53%
    18:00 +13°C° 0 mm 3 m/S 743 mmHg 57%
    19:00 +12°C° 0 mm 3 m/S 744 mmHg 61%
    20:00 +11°C° 0 mm 3 m/S 744 mmHg 62%
    21:00 +11°C° 0 mm 3 m/S 744 mmHg 62%
    22:00 +10°C° 0 mm 3 m/S 744 mmHg 63%
    23:00 +10°C° 0 mm 3 m/S 744 mmHg 65%

    23 September, Sonntag

    Zeit Temperatur Niederschläge Wind Luftdruck Luftfeuchtigkeit
    00:00 +10°C° 0 mm 3 m/S 744 mmHg 66%
    01:00 +9°C° 0 mm 3 m/S 744 mmHg 67%
    02:00 +9°C° 0 mm 2 m/S 744 mmHg 68%
    03:00 +9°C° 0 mm 2 m/S 744 mmHg 69%
    04:00 +8°C° 0 mm 2 m/S 744 mmHg 70%
    05:00 +9°C° 0 mm 2 m/S 744 mmHg 69%
    06:00 +9°C° 0 mm 2 m/S 744 mmHg 67%
    07:00 +10°C° 0 mm 3 m/S 744 mmHg 66%
    08:00 +11°C° 0 mm 3 m/S 744 mmHg 59%
    09:00 +13°C° 0 mm 3 m/S 743 mmHg 53%
    10:00 +14°C° 0 mm 4 m/S 743 mmHg 46%
    11:00 +15°C° 0 mm 4 m/S 742 mmHg 43%
    12:00 +16°C° 0 mm 5 m/S 741 mmHg 40%
    13:00 +17°C° 0 mm 5 m/S 740 mmHg 36%
    14:00 +17°C° 0 mm 5 m/S 740 mmHg 38%
    15:00 +17°C° 0 mm 5 m/S 739 mmHg 41%
    16:00 +18°C° 0 mm 4 m/S 738 mmHg 43%
    17:00 +16°C° 0.2 mm 5 m/S 737 mmHg 48%
    18:00 +15°C° 0.2 mm 5 m/S 737 mmHg 54%
    19:00 +14°C° 0.2 mm 5 m/S 736 mmHg 59%
    20:00 +13°C° 0.1 mm 5 m/S 735 mmHg 60%
    21:00 +13°C° 0.1 mm 6 m/S 734 mmHg 62%
    22:00 +13°C° 0.1 mm 6 m/S 733 mmHg 63%
    23:00 +13°C° 0 mm 6 m/S 732 mmHg 61%

    24 September, Montag

    Zeit Temperatur Niederschläge Wind Luftdruck Luftfeuchtigkeit
    00:00 +13°C° 0 mm 5 m/S 731 mmHg 59%
    01:00 +13°C° 0 mm 5 m/S 730 mmHg 57%
    02:00 +13°C° 0.2 mm 6 m/S 730 mmHg 59%
    03:00 +12°C° 0.2 mm 7 m/S 730 mmHg 60%
    04:00 +13°C° 0.2 mm 8 m/S 730 mmHg 61%
    05:00 +12°C° 0 mm 8 m/S 729 mmHg 62%
    06:00 +12°C° 0 mm 8 m/S 729 mmHg 62%
    07:00 +12°C° 0 mm 7 m/S 729 mmHg 63%
    08:00 +11°C° 0.3 mm 7 m/S 729 mmHg 64%
    09:00 +11°C° 0.3 mm 7 m/S 729 mmHg 66%
    10:00 +11°C° 0.3 mm 7 m/S 728 mmHg 67%
    11:00 +12°C° 0.1 mm 8 m/S 729 mmHg 65%
    12:00 +13°C° 0.1 mm 8 m/S 729 mmHg 63%
    13:00 +13°C° 0.1 mm 8 m/S 729 mmHg 61%
    14:00 +13°C° 0.1 mm 8 m/S 729 mmHg 61%
    15:00 +13°C° 0.1 mm 8 m/S 729 mmHg 62%
    16:00 +13°C° 0.1 mm 9 m/S 730 mmHg 63%
    17:00 +12°C° 0 mm 8 m/S 730 mmHg 64%
    18:00 +11°C° 0 mm 7 m/S 730 mmHg 65%
    19:00 +10°C° 0 mm 6 m/S 730 mmHg 66%
    20:00 +10°C° 0 mm 6 m/S 731 mmHg 67%
    21:00 +10°C° 0 mm 6 m/S 731 mmHg 67%
    22:00 +10°C° 0 mm 6 m/S 731 mmHg 68%
    23:00 +9°C° 0.2 mm 6 m/S 731 mmHg 70%
    Mehr zeigen